Weather History for LHSN - October, 2012

Change the Weather History Date:

Wednesday, October 10, 2012

  Actual Average (LHBP) Record (LHBP)
Temperature  
Mean Temperature 50 °F -  
Max Temperature 59 °F 62 °F 77 °F (1997)
Min Temperature 42 °F 43 °F 33 °F (2011)
Degree Days  
Heating Degree Days 14    
Moisture  
Dew Point 39 °F    
Average Humidity 63    
Maximum Humidity 87    
Minimum Humidity 42    
Precipitation  
Precipitation 0.00 in - - ()
Sea Level Pressure  
Sea Level Pressure 29.90 in    
Wind  
Wind Speed 5 mph ()    
Max Wind Speed 9 mph    
Max Gust Speed -    
Visibility 5.5 miles    
Events      
Averages and records for this station are not official NWS values.
T = Trace of Precipitation, MM = Missing Value Source: Averaged Metar Reports

Daily Weather History Graph

Daily Weather History Graph

Search for Another Location

Airport or City:

Trip Planner

Search our weather history database for the weather conditions in past years. The results will help you decide how hot, cold, wet, or windy it might be!

Date:

Astronomy

Oct. 10, 2012 Rise Set
Actual Time 6:50 AM CEST 6:00 PM CEST
Civil Twilight 6:19 AM CEST 6:31 PM CEST
Nautical Twilight 5:44 AM CEST 7:06 PM CEST
Astronomical Twilight 5:09 AM CEST 7:41 PM CEST
Moon 12:47 AM CEST (10/10) 3:10 PM CEST (10/10)
Length of Visible Light 12h 11m
Length of Day
11h 10m
Waning Crescent, 30% of the Moon is Illuminated
Oct 10
Waning Crescent
Oct 15
New
Oct 22
First Quarter
Oct 29
Full
Nov 7
Last Quarter

Hourly Weather History & Observations

Time (CEST) Temp. Windchill Dew Point Humidity Pressure Visibility Wind Dir Wind Speed Gust Speed Precip Events Conditions
12:15 AM 50.0 °F - 39.2 °F 66% 29.86 in - WSW 4.5 mph - N/A   Clear
12:45 AM 50.0 °F - 39.2 °F 66% 29.86 in - WSW 4.5 mph - N/A   Clear
1:15 AM 50.0 °F - 39.2 °F 66% 29.86 in - West 4.5 mph - N/A   Clear
2:15 AM 48.2 °F - 39.2 °F 71% 29.86 in - West 6.7 mph - N/A   Clear
2:45 AM 48.2 °F - 39.2 °F 71% 29.86 in - West 6.7 mph - N/A   Clear
3:15 AM 48.2 °F - 39.2 °F 71% 29.86 in - WNW 4.5 mph - N/A   Clear
3:45 AM - - - N/A% - 1.9 mi Variable 4.5 mph - N/A   Clear
4:15 AM 46.4 °F 44.4 °F 39.2 °F 76% 29.86 in - West 4.5 mph - N/A   Clear
4:45 AM 46.4 °F 44.4 °F 41.0 °F 81% 29.86 in - West 4.5 mph - N/A   Clear
5:15 AM 44.6 °F 42.3 °F 41.0 °F 87% 29.86 in - West 4.5 mph - N/A   Clear
5:45 AM 46.4 °F 44.4 °F 41.0 °F 81% 29.86 in - WNW 4.5 mph - N/A   Clear
6:15 AM 42.8 °F 38.7 °F 39.2 °F 87% 29.89 in - NNW 6.7 mph - N/A   Clear
6:45 AM - - - N/A% - - WNW 6.7 mph - N/A   Clear
7:15 AM 44.6 °F 40.8 °F 39.2 °F 81% 29.89 in - NW 6.7 mph - N/A   Clear
7:45 AM 46.4 °F 42.0 °F 39.2 °F 76% 29.92 in - NW 8.9 mph - N/A   Clear
8:15 AM 48.2 °F - 41.0 °F 76% 29.92 in - NNW 6.7 mph - N/A   Clear
8:45 AM 50.0 °F - 41.0 °F 71% 29.92 in - NNW 6.7 mph - N/A   Clear
9:15 AM 51.8 °F - 39.2 °F 62% 29.92 in - North 6.7 mph - N/A   Clear
9:45 AM - - - N/A% - - NE 8.9 mph - N/A   Clear
10:15 AM 53.6 °F - 39.2 °F 58% 29.95 in - NE 6.7 mph - N/A   Clear
10:45 AM 53.6 °F - 37.4 °F 54% 29.95 in - NE 8.9 mph - N/A   Clear
11:15 AM 55.4 °F - 39.2 °F 54% 29.95 in - NE 6.7 mph - N/A   Clear
11:45 AM 55.4 °F - 37.4 °F 51% 29.92 in - NE 6.7 mph - N/A   Clear
12:15 PM 55.4 °F - 37.4 °F 51% 29.92 in - Variable 4.5 mph - N/A   Clear
12:45 PM - - - N/A% - - Variable 4.5 mph - N/A   Clear
1:15 PM 57.2 °F - 37.4 °F 48% 29.92 in - Variable 4.5 mph - N/A   Clear
1:45 PM 59.0 °F - 35.6 °F 42% 29.92 in - Variable 4.5 mph - N/A   Clear
2:15 PM 59.0 °F - 37.4 °F 45% 29.92 in - Variable 4.5 mph - N/A   Clear
2:45 PM 59.0 °F - 37.4 °F 45% 29.92 in - NW 4.5 mph - N/A   Clear
3:15 PM 59.0 °F - 35.6 °F 42% 29.92 in - Variable 4.5 mph - N/A   Clear
3:45 PM - - - N/A% - 6.2 mi WNW 6.7 mph - N/A   Clear
4:15 PM 59.0 °F - 35.6 °F 42% 29.89 in - WNW 4.5 mph - N/A   Clear
4:45 PM 57.2 °F - 37.4 °F 48% 29.89 in - WNW 2.2 mph - N/A   Clear
5:15 PM 57.2 °F - 35.6 °F 44% 29.89 in - WNW 2.2 mph - N/A   Clear
5:45 PM 55.4 °F - 37.4 °F 51% 29.89 in - West 2.2 mph - N/A   Clear
6:45 PM - - - N/A% - 6.2 mi Variable 4.5 mph - N/A   Clear
7:15 PM 50.0 °F - 39.2 °F 66% 29.89 in - Variable 2.2 mph - N/A   Clear
7:45 PM 50.0 °F - 41.0 °F 71% 29.89 in - Variable 2.2 mph - N/A   Clear
8:15 PM 50.0 °F - 42.8 °F 76% 29.89 in - SW 4.5 mph - N/A   Clear
8:45 PM 51.8 °F - 41.0 °F 67% 29.92 in - SW 2.2 mph - N/A   Clear
9:15 PM 51.8 °F - 39.2 °F 62% 29.92 in - WNW 2.2 mph - N/A   Clear
9:45 PM - - - N/A% - 6.2 mi WNW 4.5 mph - N/A   Overcast
10:45 PM 51.8 °F - 41.0 °F 67% 29.92 in 6.2 mi West 4.5 mph - N/A   Overcast
11:15 PM 51.8 °F - 41.0 °F 67% 29.92 in 6.2 mi SW 4.5 mph - N/A   Overcast